Location: Newark
(42.8481°N, 0.4872°E)
Time: 12:02:35
(UTC+00:00)

A-11 Canister half - Pass Details

Date: 03 November 2020
Orbit: 1525 x 1684 km, 47.3° (Epoch: 01 December)

Event Time Altitude Azimuth Distance (km) Brightness Sun altitude
Rises 18:18:08 0° 294° (WNW) 4,726 12.6 -17.0°
Reaches altitude 10° 18:21:14 10° 293° (WNW) 3,726 12.0 -17.6°
Maximum altitude 18:30:32 72° 212° (SSW) 1,589 9.1 -19.3°
Enters shadow 18:38:11 17° 131° (SE) 3,192 10.2 -20.7°
Drops below altitude 10° 18:39:45 10° 130° (SE) 3,689 - -21.0°
Sets 18:42:48 0° 128° (SE) 4,677 - -21.5°
